Regional Weather Roundup
Issued by NWS Huntsville, AL

Current Version | Previous Version | Text Only | Print | Product List | Glossary On
Versions: 1 2 3 4 5 6 7 8 9 10 11 12 13 14 15 16 17 18 19 20 21 22 23 24 25 26 27 28 29 30 31 32 33 34 35 36 37 38 39 40 41 42 43 44 45 46 47 48 49 50
000
ASUS44 KHUN 112310
RWRHUN

WEATHER ROUNDUP FOR THE TENNESSEE VALLEY
NATIONAL WEATHER SERVICE HUNTSVILLE AL
500 PM CST TUE DEC 11 2018

ALZ001>004-120000-
NORTHWEST ALABAMA

CITY           SKY/WX    TMP DP  RH WIND       PRES   REMARKS
COURTLAND HCN    N/A     43 N/A N/A SW3         N/A
RUSSELLVILLE     N/A     41 N/A N/A MISG        N/A
SHOALS AIRPORT FAIR      43  28  55 SW6       30.29S
SHOALS TVA RES   N/A     45 N/A N/A MISG        N/A
$$

ALZ005>007-016-120000-
NORTH CENTRAL ALABAMA

CITY           SKY/WX    TMP DP  RH WIND       PRES   REMARKS
CULLMAN AG STN   N/A     45 N/A N/A S5          N/A
DECATUR AP     FAIR      37  31  78 CALM      30.30R
HUNTSVILLE AP  FAIR      45  30  55 CALM      30.29S
MERIDIANVILLE  CLEAR     37  29  72 S5        30.28S WCI  33
REDSTONE ARSN  FAIR      40  29  64 CALM      30.28S
VINEMONT AP    FAIR      38  29  70 CALM      30.30S
$$

ALZ008>010-120000-
NORTHEAST ALABAMA

CITY           SKY/WX    TMP DP  RH WIND       PRES   REMARKS
ALBERTVILLE    FAIR      41  32  70 CALM      30.28R
FORT PAYNE     FAIR      38  26  61 CALM      30.26F
SCOTTSBORO AP  FAIR      41  30  65 W5        30.28F
SCOTTSBORO HCN   N/A     37 N/A N/A MISG        N/A
VALLEY HEAD      N/A     36 N/A N/A MISG        N/A
$$

TNZ076-096-097-120000-
SOUTHEASTERN MIDDLE TENNESSEE

CITY           SKY/WX    TMP DP  RH WIND       PRES   REMARKS
TULLAHOMA      CLEAR     37  23  56 SW5       30.25S WCI  34
WINCHESTER     CLEAR     41  25  52 CALM      30.26F
$$

...SURROUNDING SITES...

CITY           SKY/WX    TMP DP  RH WIND       PRES   REMARKS
ATLANTA        FAIR      46  26  45 W7        30.25R
ANNISTON       FAIR      41  31  67 W3        30.29F
BIRMINGHAM     FAIR      42  28  57 CALM      30.33R
CHATTANOOGA    FAIR      43  22  43 VRB6      30.26S
CORINTH        FAIR      41  30  65 S7        30.27F
DALTON         FAIR      37  28  70 CALM      30.28S
GADSDEN        FAIR      38  32  79 W5        30.30S WCI  34
GOLDEN TRNGL   FAIR      48  30  49 SE3       30.34S
HALEYVILLE     FAIR      39  22  50 SW5       30.31S
JACKSON TN     FAIR      43  26  51 S6        30.23F
MEMPHIS        FAIR      46  28  49 S10       30.25S
NASHVILLE      FAIR      44  20  38 S6        30.24F
OXFORD MS      FAIR      45  27  49 S6        30.29S
ROME           FAIR      43  29  57 SW3       30.27R
SAVANNAH       HAZE      43  28  56 S6        30.26F VSB 1
SELMER         CLEAR     43  30  61 S6        30.25S
TUPELO         FAIR      39  30  70 SE6       30.30F WCI  35
TUSCALOOSA     FAIR      46  26  45 CALM      30.33S
$$

...GULF COAST WEATHER...

CITY           SKY/WX    TMP DP  RH WIND       PRES   REMARKS
GULFPORT       FAIR      50  40  68 CALM      30.34S
PASCAGOULA     FAIR      50  40  68 CALM      30.34S
MOBILE         FAIR      49  32  52 W3        30.34R
GULF SHORES    FAIR      46  38  76 W7        30.35R
DESTIN         FAIR      51  41  68 CALM      30.33R
PANAMA CITY    FAIR      48  42  77 W7          N/A
APPALACHICOLA  FAIR      49  38  65 N3        30.31S
$$





USA.gov is the U.S. government's official web portal to all federal, state and local government web resources and services.